Weather History for VABB - September, 2013

Change the Weather History Date:

Thursday, September 19, 2013

  Actual Average Record
Temperature  
Mean Temperature 78 °F -  
Max Temperature 84 °F 88 °F 91 °F (2002)
Min Temperature 72 °F 76 °F 72 °F (2013)
Cooling Degree Days 13    
Growing Degree Days 28 (Base 50)    
Moisture  
Dew Point 75 °F    
Average Humidity 91    
Maximum Humidity 100    
Minimum Humidity 79    
Precipitation  
Precipitation 0.16 in - - ()
Sea Level Pressure  
Sea Level Pressure 29.64 in    
Wind  
Wind Speed 4 mph ()    
Max Wind Speed 14 mph    
Max Gust Speed 21 mph    
Visibility 1.4 miles    
Events Rain , Thunderstorm    
Averages and records for this station are not official NWS values.
T = Trace of Precipitation, MM = Missing Value Source: Averaged Metar Reports

Daily Weather History Graph

Daily Weather History Graph

Search for Another Location

Airport or City:

Trip Planner

Search our weather history database for the weather conditions in past years. The results will help you decide how hot, cold, wet, or windy it might be!

Date:

Astronomy

Sep. 19, 2013 Rise Set
Actual Time 6:26 AM IST 6:37 PM IST
Civil Twilight 6:04 AM IST 6:59 PM IST
Nautical Twilight 5:39 AM IST 7:24 PM IST
Astronomical Twilight 5:13 AM IST 7:50 PM IST
Moon 6:27 PM IST (9/19) 6:03 AM IST (9/19)
Length of Visible Light 12h 54m
Length of Day
12h 10m
Full, 100% of the Moon is Illuminated
Sep 19
Full
Sep 19
Full
Sep 27
Last Quarter
Oct 5
New
Oct 12
First Quarter

Hourly Weather History & Observations

Time (IST) Temp. Heat Index Dew Point Humidity Pressure Visibility Wind Dir Wind Speed Gust Speed Precip Events Conditions
12:10 AM 84.2 °F 96.1 °F 78.8 °F 84% 29.65 in 1.9 mi ESE 3.5 mph - N/A   Haze
12:40 AM 73.4 °F - 71.6 °F 94% 29.65 in 1.2 mi East 13.8 mph - N/A Rain , Thunderstorm Light Thunderstorms and Rain
1:10 AM 73.4 °F - 69.8 °F 88% 29.65 in 1.6 mi East 5.8 mph - N/A Rain , Thunderstorm Light Thunderstorms and Rain
2:10 AM 75.2 °F - 69.8 °F 83% 29.59 in 1.9 mi Calm Calm - N/A Rain Light Rain
2:30 AM 74 °F - 72 °F 93% 29.61 in 1 mi Calm Calm - - Rain Light Rain
2:40 AM 75.2 °F - 71.6 °F 89% 29.59 in 1.9 mi Calm Calm - N/A Rain Light Rain
3:10 AM 75.2 °F - 71.6 °F 89% 29.59 in 1.9 mi SE 3.5 mph - N/A Rain Light Rain
3:40 AM 77.0 °F - 71.6 °F 83% 29.59 in 1.9 mi Calm Calm - N/A   Haze
4:10 AM 75.2 °F - 71.6 °F 89% 29.62 in 1.9 mi ENE 9.2 mph 20.7 mph N/A   Haze
5:30 AM 74 °F - 72 °F 91% 29.63 in 1 mi Calm Calm - - Rain , Thunderstorm Thunderstorms and Rain
5:40 AM 75.2 °F - 73.4 °F 94% 29.62 in 1.4 mi SSE 5.8 mph - N/A Rain , Thunderstorm Thunderstorms and Rain
6:10 AM 75.2 °F - 73.4 °F 94% 29.65 in 1.4 mi Calm Calm - N/A Rain , Thunderstorm Thunderstorms and Rain
6:40 AM 75.2 °F - 73.4 °F 94% 29.68 in 1.6 mi Variable 3.5 mph - N/A Rain , Thunderstorm Light Thunderstorms and Rain
7:10 AM 75.2 °F - 73.4 °F 94% 29.65 in 1.4 mi SW 3.5 mph - N/A Rain Rain
7:40 AM 75.2 °F - 75.2 °F 100% 29.68 in 0.9 mi South 3.5 mph - N/A Rain , Thunderstorm Thunderstorms and Rain
8:10 AM 75.2 °F - 75.2 °F 100% 29.68 in 0.9 mi Variable 2.3 mph - N/A Rain , Thunderstorm Thunderstorms and Rain
8:30 AM 75 °F - 74 °F 94% 29.70 in 1 mi Calm Calm - - Rain Light Rain
8:40 AM 75.2 °F - 75.2 °F 100% 29.68 in 0.9 mi Variable 2.3 mph - N/A Rain , Thunderstorm Thunderstorms and Rain
9:10 AM 77.0 °F - 75.2 °F 94% 29.68 in 0.9 mi ESE 5.8 mph - N/A Rain , Thunderstorm Light Thunderstorms and Rain
10:40 AM 78.8 °F - 75.2 °F 89% 29.71 in 0.9 mi SSW 3.5 mph - N/A   Haze
11:10 AM 78.8 °F - 75.2 °F 89% 29.71 in 1.1 mi West 5.8 mph - N/A   Haze
11:30 AM 79 °F - 74 °F 79% 29.70 in 1 mi Calm Calm - -   Haze
11:40 AM 78.8 °F - 75.2 °F 89% 29.71 in 1.1 mi Calm Calm - N/A   Haze
12:10 PM 78.8 °F - 75.2 °F 89% 29.68 in 1.2 mi WSW 8.1 mph - N/A   Haze
12:40 PM 78.8 °F - 75.2 °F 89% 29.68 in 1.6 mi WSW 8.1 mph - N/A   Haze
1:10 PM 80.6 °F 87.1 °F 77.0 °F 89% 29.65 in 1.6 mi West 9.2 mph - N/A   Haze
1:40 PM 80.6 °F 87.1 °F 77.0 °F 89% 29.65 in 1.7 mi WSW 10.4 mph - N/A   Haze
2:10 PM 80.6 °F 87.1 °F 77.0 °F 89% 29.62 in 1.7 mi WSW 8.1 mph - N/A   Haze
2:30 PM 81 °F - 76 °F 82% 29.63 in 1 mi Calm Calm - -   Haze
2:40 PM 80.6 °F 87.1 °F 77.0 °F 89% 29.62 in 1.6 mi WSW 8.1 mph - N/A   Haze
3:10 PM 80.6 °F 87.1 °F 77.0 °F 89% 29.59 in 1.6 mi WSW 5.8 mph - N/A   Haze
3:40 PM 80.6 °F 88.1 °F 78.8 °F 94% 29.59 in 1.6 mi SW 5.8 mph - N/A   Overcast
4:10 PM 82.4 °F 92.4 °F 78.8 °F 89% 29.59 in 1.6 mi WNW 4.6 mph - N/A   Haze
4:40 PM 82.4 °F 94.0 °F 80.6 °F 94% 29.56 in 1.6 mi WNW 8.1 mph - N/A   Haze
5:10 PM 84.2 °F 98.3 °F 80.6 °F 89% 29.59 in 1.6 mi WNW 8.1 mph - N/A   Haze
5:30 PM 83 °F - 79 °F 84% 29.60 in 1 mi NNW 4.6 mph - -   Haze
5:40 PM 84.2 °F 98.3 °F 80.6 °F 89% 29.59 in 1.6 mi WNW 9.2 mph - N/A   Haze
6:10 PM 82.4 °F 92.4 °F 78.8 °F 89% 29.59 in 1.6 mi NW 6.9 mph - N/A   Haze
6:40 PM 80.6 °F 87.1 °F 77.0 °F 89% 29.59 in 1.4 mi East 11.5 mph - N/A Rain Rain
7:10 PM 78.8 °F - 75.2 °F 89% 29.62 in 1.4 mi SE 6.9 mph - N/A Rain Light Rain
7:40 PM 78.8 °F - 75.2 °F 89% 29.62 in 1.4 mi South 3.5 mph - N/A Rain Rain
8:10 PM 78.8 °F - 75.2 °F 89% 29.65 in 1.4 mi South 3.5 mph - N/A Rain Light Rain
8:30 PM 78 °F - 76 °F 90% 29.66 in 1 mi Calm Calm - - Rain Light Drizzle
9:10 PM 78.8 °F - 77.0 °F 94% 29.65 in 1.4 mi Calm Calm - N/A Thunderstorm Thunderstorm
10:10 PM 78.8 °F - 77.0 °F 94% 29.65 in 0.9 mi SW 9.2 mph - N/A Rain , Thunderstorm Thunderstorms and Rain
10:40 PM 77.0 °F - 77.0 °F 100% 29.68 in 1.3 mi East 5.8 mph - N/A Rain , Thunderstorm Thunderstorms and Rain
11:10 PM 77.0 °F - 77.0 °F 100% 29.68 in 1.4 mi ESE 8.1 mph - N/A Rain , Thunderstorm Light Thunderstorms and Rain
11:30 PM 78 °F - 75 °F 88% 29.68 in 1 mi Calm Calm - - Rain Light Drizzle